Radiation Dose at Monitoring Post of Fukushima Daini Nuclear Power Station
Date,Time,MP-1(microSv/h),MP-2(microSv/h),MP-3(microSv/h),MP-4(microSv/h),MP-5(microSv/h),MP-6(microSv/h),MP-7(microSv/h),Wind Direction,Wind Velocity(m/s),Rain
2017/10/03,00:00,0.343,0.213,0.350,0.327,0.315,0.172,0.103,southwest,7.8,No
2017/10/03,00:10,0.340,0.211,0.347,0.331,0.316,0.175,0.104,south-southwest,7.8,Yes
2017/10/03,00:20,0.341,0.212,0.350,0.329,0.312,0.173,0.104,south-southwest,6.6,Yes
2017/10/03,00:30,0.342,0.211,0.348,0.327,0.317,0.173,0.103,south-southwest,6.5,Yes
2017/10/03,00:40,0.338,0.213,0.350,0.331,0.315,0.174,0.104,south-southwest,6.2,Yes
2017/10/03,00:50,0.343,0.213,0.351,0.327,0.313,0.172,0.103,south-southwest,6.6,Yes
2017/10/03,01:00,0.340,0.212,0.348,0.330,0.319,0.174,0.104,south-southwest,9.2,No
2017/10/03,01:10,0.342,0.214,0.350,0.331,0.315,0.173,0.103,south-southwest,8.7,No
2017/10/03,01:20,0.341,0.212,0.348,0.328,0.314,0.173,0.103,south-southwest,10.8,No
2017/10/03,01:30,0.341,0.214,0.351,0.332,0.317,0.174,0.104,south-southwest,7.0,No
2017/10/03,01:40,0.342,0.212,0.350,0.330,0.313,0.173,0.103,south-southwest,9.0,No
2017/10/03,01:50,0.341,0.213,0.347,0.329,0.317,0.173,0.104,south-southwest,7.8,No
2017/10/03,02:00,0.340,0.214,0.352,0.330,0.315,0.173,0.104,south-southwest,5.1,No
2017/10/03,02:10,0.342,0.212,0.349,0.328,0.313,0.173,0.103,south,4.5,No
2017/10/03,02:20,0.338,0.213,0.350,0.330,0.317,0.174,0.104,south,3.8,No
2017/10/03,02:30,0.340,0.212,0.352,0.331,0.314,0.173,0.104,south,4.2,No
2017/10/03,02:40,0.339,0.214,0.347,0.328,0.316,0.173,0.104,south,3.4,No
2017/10/03,02:50,0.341,0.213,0.350,0.332,0.317,0.174,0.103,south,3.3,No
2017/10/03,03:00,0.342,0.212,0.350,0.331,0.313,0.173,0.103,south,3.9,No
2017/10/03,03:10,0.339,0.213,0.350,0.329,0.318,0.174,0.103,south,4.1,No
2017/10/03,03:20,0.343,0.211,0.350,0.332,0.315,0.174,0.103,south-southwest,4.8,No
2017/10/03,03:30,0.341,0.214,0.347,0.329,0.314,0.172,0.103,south-southwest,4.2,No
2017/10/03,03:40,0.339,0.212,0.353,0.331,0.318,0.174,0.103,south-southwest,3.6,No
2017/10/03,03:50,0.343,0.213,0.350,0.331,0.314,0.173,0.104,south-southwest,2.4,No
2017/10/03,04:00,0.337,0.212,0.349,0.328,0.316,0.173,0.104,south-southwest,1.4,No
2017/10/03,04:10,0.341,0.213,0.351,0.332,0.316,0.176,0.104,south-southwest,2.2,No
2017/10/03,04:20,0.341,0.213,0.350,0.328,0.314,0.172,0.104,south,1.9,No
2017/10/03,04:30,0.339,0.213,0.350,0.329,0.317,0.174,0.104,south-southeast,3.0,No
2017/10/03,04:40,0.343,0.214,0.350,0.329,0.313,0.173,0.103,southeast,2.6,No
2017/10/03,04:50,0.340,0.212,0.351,0.328,0.316,0.173,0.105,east-southeast,1.2,No
2017/10/03,05:00,0.342,0.213,0.352,0.332,0.316,0.175,0.104,east-northeast,1.0,No
2017/10/03,05:10,0.342,0.213,0.349,0.329,0.314,0.173,0.104,south-southwest,4.1,No
2017/10/03,05:20,0.339,0.213,0.352,0.332,0.316,0.174,0.104,south-southwest,4.3,No
2017/10/03,05:30,0.343,0.214,0.348,0.331,0.314,0.174,0.104,south-southwest,5.2,No
2017/10/03,05:40,0.340,0.212,0.351,0.328,0.315,0.174,0.104,south-southwest,5.0,No
2017/10/03,05:50,0.343,0.214,0.351,0.331,0.315,0.173,0.103,south-southwest,5.3,No
2017/10/03,06:00,0.342,0.212,0.349,0.328,0.315,0.172,0.103,south-southwest,5.0,No
2017/10/03,06:10,0.340,0.213,0.350,0.330,0.317,0.173,0.104,south-southwest,4.0,No
2017/10/03,06:20,0.344,0.213,0.348,0.330,0.314,0.174,0.104,south-southwest,3.6,No
2017/10/03,06:30,0.341,0.214,0.351,0.330,0.318,0.173,0.104,south-southwest,4.5,No
2017/10/03,06:40,0.343,0.214,0.349,0.332,0.314,0.174,0.103,south-southwest,4.4,No
2017/10/03,06:50,0.341,0.213,0.348,0.328,0.314,0.173,0.104,southwest,3.0,No
2017/10/03,07:00,0.341,0.214,0.350,0.330,0.316,0.174,0.103,west-southwest,2.8,No
2017/10/03,07:10,0.343,0.212,0.348,0.331,0.314,0.173,0.104,southwest,3.3,No
2017/10/03,07:20,0.340,0.213,0.352,0.327,0.315,0.173,0.103,southwest,3.5,No
2017/10/03,07:30,0.343,0.213,0.350,0.329,0.318,0.174,0.104,south-southwest,2.8,No
2017/10/03,07:40,0.343,0.213,0.348,0.332,0.315,0.173,0.103,south-southeast,2.2,No
2017/10/03,07:50,0.338,0.213,0.351,0.328,0.316,0.174,0.104,south,1.6,No
2017/10/03,08:00,0.342,0.212,0.347,0.327,0.317,0.174,0.103,south-southeast,2.3,No
2017/10/03,08:10,0.342,0.212,0.350,0.325,0.313,0.172,0.102,south-southeast,1.9,No
2017/10/03,08:20,0.339,0.216,0.351,0.330,0.314,0.173,0.103,south,2.8,No
2017/10/03,08:30,0.344,0.214,0.347,0.330,0.318,0.174,0.104,south-southeast,3.2,No
2017/10/03,08:40,0.341,0.212,0.351,0.329,0.315,0.173,0.102,south-southeast,3.7,No
2017/10/03,08:50,0.338,0.212,0.351,0.328,0.313,0.174,0.103,south,4.2,No
2017/10/03,09:00,0.344,0.211,0.347,0.326,0.316,0.173,0.103,south,4.4,No
2017/10/03,09:10,0.344,0.212,0.351,0.326,0.317,0.174,0.102,south,4.7,No
2017/10/03,09:20,0.340,0.211,0.349,0.327,0.315,0.173,0.101,south,5.9,No
2017/10/03,09:30,0.338,0.211,0.348,0.328,0.314,0.172,0.101,south,5.5,No
2017/10/03,09:40,0.336,0.210,0.352,0.328,0.314,0.173,0.101,south,5.6,No
2017/10/03,09:50,0.337,0.211,0.349,0.327,0.313,0.173,0.101,south,6.2,No
2017/10/03,10:00,0.339,0.211,0.347,0.327,0.313,0.173,0.101,south,6.5,No
2017/10/03,10:10,0.340,0.212,0.352,0.327,0.313,0.173,0.101,south,6.2,No
2017/10/03,10:20,0.340,0.212,0.351,0.328,0.315,0.174,0.101,south,6.2,No
2017/10/03,10:30,0.340,0.212,0.348,0.330,0.315,0.174,0.101,south,7.0,No
2017/10/03,10:40,0.338,0.213,0.347,0.330,0.313,0.175,0.100,south,8.2,No
2017/10/03,10:50,0.338,0.214,0.352,0.327,0.315,0.175,0.102,south,8.7,No
2017/10/03,11:00,0.339,0.215,0.351,0.331,0.319,0.174,0.102,south,8.0,No
2017/10/03,11:10,0.344,0.215,0.348,0.333,0.318,0.174,0.103,south,8.3,No
2017/10/03,11:20,0.343,0.214,0.349,0.334,0.317,0.173,0.103,south,6.7,No
2017/10/03,11:30,0.343,0.213,0.346,0.331,0.315,0.174,0.102,south,6.9,No
2017/10/03,11:40,0.340,0.212,0.346,0.330,0.315,0.173,0.100,south,7.3,No
2017/10/03,11:50,0.341,0.211,0.347,0.330,0.314,0.174,0.101,south,6.5,No
2017/10/03,12:00,0.340,0.212,0.349,0.330,0.314,0.174,0.101,south,6.0,No
2017/10/03,12:10,0.339,0.213,0.347,0.330,0.314,0.173,0.101,south,3.7,No
2017/10/03,12:20,0.338,0.212,0.348,0.329,0.314,0.174,0.102,south,4.4,No
2017/10/03,12:30,0.338,0.213,0.348,0.330,0.314,0.174,0.101,south,4.0,No
2017/10/03,12:40,0.338,0.214,0.349,0.332,0.314,0.174,0.102,south,2.7,No
2017/10/03,12:50,0.338,0.213,0.349,0.330,0.317,0.174,0.101,south-southeast,2.4,No
2017/10/03,13:00,0.339,0.211,0.348,0.330,0.315,0.175,0.101,east,1.5,No
2017/10/03,13:10,0.340,0.214,0.351,0.331,0.317,0.174,0.101,east-northeast,1.8,No
2017/10/03,13:20,0.339,0.214,0.350,0.330,0.316,0.175,0.100,east-northeast,2.1,No
2017/10/03,13:30,0.340,0.215,0.352,0.331,0.315,0.174,0.101,northeast,1.1,No
2017/10/03,13:40,0.341,0.215,0.350,0.330,0.319,0.176,0.101,northeast,1.6,No
2017/10/03,13:50,0.339,0.214,0.351,0.332,0.317,0.174,0.100,north-northeast,2.9,No
2017/10/03,14:00,0.339,0.214,0.351,0.332,0.316,0.174,0.101,north-northeast,3.3,No
2017/10/03,14:10,0.342,0.215,0.351,0.330,0.317,0.174,0.102,north-northeast,4.2,No
2017/10/03,14:20,0.345,0.214,0.352,0.328,0.316,0.174,0.102,north-northeast,4.9,No
2017/10/03,14:30,0.344,0.213,0.349,0.329,0.316,0.174,0.101,north,7.4,No
2017/10/03,14:40,0.342,0.214,0.350,0.328,0.315,0.173,0.103,north,8.9,No
2017/10/03,14:50,0.340,0.213,0.347,0.329,0.314,0.173,0.102,north,10.0,No
2017/10/03,15:00,0.344,0.212,0.348,0.333,0.313,0.173,0.102,north,12.4,No
2017/10/03,15:10,0.346,0.213,0.352,0.333,0.315,0.174,0.101,north-northeast,13.0,No
2017/10/03,15:20,0.342,0.215,0.351,0.331,0.319,0.173,0.102,north-northeast,10.8,No
2017/10/03,15:30,0.345,0.213,0.350,0.331,0.317,0.174,0.101,north,10.0,Yes
2017/10/03,15:40,0.343,0.215,0.352,0.335,0.318,0.175,0.102,north-northeast,10.0,Yes
2017/10/03,15:50,0.342,0.214,0.353,0.331,0.318,0.175,0.103,north-northeast,9.6,Yes
2017/10/03,16:00,0.345,0.215,0.352,0.333,0.317,0.174,0.104,north-northeast,9.9,Yes
2017/10/03,16:10,0.342,0.215,0.353,0.333,0.320,0.176,0.104,north-northeast,9.0,Yes
2017/10/03,16:20,0.345,0.215,0.350,0.332,0.318,0.175,0.103,north-northeast,10.0,No
2017/10/03,16:30,0.342,0.215,0.354,0.335,0.322,0.176,0.104,north,6.6,No
2017/10/03,16:40,0.346,0.215,0.352,0.331,0.317,0.176,0.103,north,7.7,No
2017/10/03,16:50,0.344,0.215,0.355,0.334,0.318,0.175,0.104,north,8.7,No
2017/10/03,17:00,0.342,0.215,0.351,0.332,0.317,0.176,0.103,north,8.0,No
2017/10/03,17:10,0.344,0.216,0.354,0.333,0.318,0.174,0.103,north,9.4,No
2017/10/03,17:20,0.343,0.215,0.351,0.331,0.317,0.176,0.104,north,7.9,No
2017/10/03,17:30,0.346,0.215,0.353,0.329,0.316,0.174,0.103,west,5.3,No
2017/10/03,17:40,0.342,0.214,0.352,0.333,0.319,0.174,0.104,north,7.2,No
2017/10/03,17:50,0.345,0.215,0.351,0.330,0.315,0.174,0.104,north,8.4,Yes
2017/10/03,18:00,0.342,0.215,0.352,0.333,0.319,0.174,0.103,north,5.6,Yes
2017/10/03,18:10,0.344,0.215,0.352,0.332,0.316,0.175,0.103,east-southeast,7.1,Yes
2017/10/03,18:20,0.344,0.215,0.353,0.333,0.319,0.174,0.104,north,8.6,No
2017/10/03,18:30,0.344,0.215,0.351,0.332,0.316,0.175,0.103,north,9.7,No
2017/10/03,18:40,0.345,0.215,0.353,0.332,0.319,0.174,0.104,north,7.7,No
2017/10/03,18:50,0.343,0.216,0.352,0.333,0.318,0.175,0.103,north,4.4,No
2017/10/03,19:00,0.346,0.214,0.353,0.332,0.319,0.174,0.103,north-northeast,7.2,No
2017/10/03,19:10,0.342,0.216,0.350,0.335,0.318,0.175,0.104,north,6.0,No
2017/10/03,19:20,0.345,0.213,0.353,0.330,0.317,0.175,0.103,north,6.2,No
2017/10/03,19:30,0.342,0.215,0.350,0.334,0.318,0.174,0.105,north,5.4,No
2017/10/03,19:40,0.345,0.215,0.354,0.330,0.318,0.175,0.103,north,5.4,No
2017/10/03,19:50,0.343,0.215,0.352,0.333,0.318,0.174,0.103,north,6.1,No
2017/10/03,20:00,0.344,0.215,0.354,0.331,0.317,0.174,0.104,north,7.3,No
2017/10/03,20:10,0.344,0.215,0.351,0.334,0.318,0.175,0.105,north,7.0,No
2017/10/03,20:20,0.344,0.215,0.353,0.331,0.316,0.176,0.103,north,6.8,No
2017/10/03,20:30,0.345,0.215,0.353,0.335,0.318,0.175,0.103,north,5.6,No
2017/10/03,20:40,0.344,0.215,0.353,0.330,0.317,0.175,0.103,north,5.5,No
2017/10/03,20:50,0.344,0.215,0.353,0.333,0.318,0.174,0.104,north,5.3,No
2017/10/03,21:00,0.342,0.216,0.353,0.331,0.317,0.176,0.103,north,5.8,No
2017/10/03,21:10,0.346,0.215,0.352,0.333,0.319,0.174,0.104,north,4.5,No
2017/10/03,21:20,0.343,0.215,0.352,0.331,0.315,0.174,0.104,north-northwest,5.2,No
2017/10/03,21:30,0.345,0.213,0.352,0.332,0.318,0.174,0.104,north,5.9,No
2017/10/03,21:40,0.343,0.215,0.352,0.332,0.316,0.175,0.102,north,5.7,No
2017/10/03,21:50,0.345,0.214,0.352,0.331,0.318,0.174,0.103,north,7.1,No
2017/10/03,22:00,0.343,0.215,0.352,0.333,0.317,0.174,0.103,north,6.4,No
2017/10/03,22:10,0.345,0.216,0.353,0.333,0.319,0.174,0.104,north,6.3,No
2017/10/03,22:20,0.343,0.215,0.354,0.333,0.316,0.174,0.103,north,5.6,No
2017/10/03,22:30,0.346,0.215,0.352,0.332,0.320,0.175,0.104,north,6.2,No
2017/10/03,22:40,0.343,0.215,0.354,0.333,0.315,0.175,0.104,north,6.1,No
2017/10/03,22:50,0.345,0.215,0.351,0.333,0.320,0.175,0.104,north,6.4,No
2017/10/03,23:00,0.343,0.214,0.354,0.331,0.317,0.174,0.105,north,5.9,No
2017/10/03,23:10,0.346,0.216,0.352,0.335,0.320,0.175,0.104,north,6.8,No
2017/10/03,23:20,0.343,0.214,0.356,0.333,0.316,0.175,0.103,north,7.3,No
2017/10/03,23:30,0.345,0.214,0.350,0.334,0.320,0.175,0.103,north,8.0,No
2017/10/03,23:40,0.344,0.214,0.354,0.332,0.315,0.174,0.104,north,7.9,No
2017/10/03,23:50,0.345,0.214,0.351,0.334,0.318,0.175,0.104,north,7.5,No
